Regional Weather Roundup
Issued by NWS New Orleans/Baton Rouge, LA

Home | Current Version | Previous Version | Text Only | Print | Product List | Glossary Off
Versions: 1 2 3 4 5 6 7 8 9 10 11 12 13 14 15 16 17 18 19 20 21 22 23 24 25 26 27 28 29 30 31 32 33 34 35 36 37 38 39 40 41 42 43 44 45 46 47 48 49 50

809
ASUS44 KLIX 221810
RWRLIX
NEW ORLEANS REGIONAL WEATHER ROUNDUP
NATIONAL WEATHER SERVICE NEW ORLEANS LA
100 PM CDT MON SEP 22 2014

NOTE: "FAIR" INDICATES FEW OR NO CLOUDS BELOW 12,000 FEET WITH NO
      SIGNIFICANT WEATHER AND/OR OBSTRUCTIONS TO VISIBILITY.
      SKY/WX - SKY CONDITION AND SIGNIFICANT WEATHER.
      TMP - AIR TEMPERATURE.     DP    - DEWPOINT TEMPERATURE.
      RH  - RELATIVE HUMIDITY.   PRES  - PRESSURE.
      HI  - HEAT INDEX.          WCI   - WIND CHILL INDEX.

*  THESE STATIONS ARE NOT NWS OR FAA STATIONS AND ARE NOT UNDER
   NWS QUALITY CONTROL.

LAZ038-040-048-061>063-065>067-069-221900-
SOUTHEAST LOUISIANA

CITY           SKY/WX    TMP DP  RH WIND       PRES   REMARKS
N.O. AUDUBON   NOT AVBL
N.O. INTL ARPT MOSUNNY   89  68  49 N8        30.02F
6HR MIN TEMP:  73; 6HR MAX TEMP:  89;

N.O. LAKEFRONT SUNNY     86  70  58 NW5       30.03F
6HR MIN TEMP:  79; 6HR MAX TEMP:  87;

N.O. DOWNTOWN*   N/A     88  64  45 N7        30.03F
6HR MIN TEMP:  79; 6HR MAX TEMP:  90;

SLIDELL        SUNNY     89  72  56 N10       30.02F HX  96
6HR MIN TEMP:  66; 6HR MAX TEMP:  90;

BATON ROUGE    MOSUNNY   87  71  58 NE13      30.05S
6HR MIN TEMP:  68; 6HR MAX TEMP:  87;

BOOTHVILLE     SUNNY     85  74  69 N8        30.01F
6HR MIN TEMP:  80; 6HR MAX TEMP:  86;

BELLE CHASSE   MOSUNNY   90  63  40 VRB7      30.01F
6HR MIN TEMP:  69; 6HR MAX TEMP:  90;

BOGALUSA*        N/A     86  71  59 N9        30.06F
6HR MIN TEMP:  65; 6HR MAX TEMP:  87;

GALLIANO*      NOT AVBL
NEW ROADS*     MOCLDY    85  70  62 N10       30.06F
6HR MIN TEMP:  68; 6HR MAX TEMP:  85;

GONZALES*        N/A     88  73  60 NW7       30.03F
6HR MIN TEMP:  67; 6HR MAX TEMP:  88;

HAMMOND*       MOSUNNY   88  70  55 N8        30.05F
HOUMA*         SUNNY     90  32  12 N8        30.02F
PORT FOURCHON* CLEAR     86  72  62 NE13      30.04F

$$

MSZ070-080>082-221900-
SOUTHERN MISSISSIPPI

CITY           SKY/WX    TMP DP  RH WIND       PRES   REMARKS
MCCOMB         SUNNY     85  62  46 N15G21    30.08F
6HR MIN TEMP:  72; 6HR MAX TEMP:  85;

GULFPORT       MOSUNNY   89  67  47 NW5       30.00F
6HR MIN TEMP:  67; 6HR MAX TEMP:  91;

BILOXI         MOSUNNY   89  69  52 S8        30.01F
6HR MIN TEMP:  72; 6HR MAX TEMP:  90;

PASCAGOULA     SUNNY     89  68  49 N7        30.01F
6HR MIN TEMP:  64; 6HR MAX TEMP:  89;


$$

COASTAL OBSERVATIONS
LAKE AND NEARSHORE STATIONS

STATION/POSITION TIME  TEMP    WIND        PRES    WAVE
                       AIR SEA DIR/SP/G            HT/PER
                 (UTC) (F)     (DEG/KT/KT) (MB)    (FT/S)
PASCAGOULA       1800   86     180/  7/  8 1015.8
WAVELAND YACHT   1800   86     360/  3/  4 1015.8
GRAND ISLE       1800   85 82   40/  8/ 11 1016.9
SOUTHWEST PASS   1800   88 89   30/ 17/ 19 1016.0
NEW CANAL        1800   83 81  350/  3/  5 1017.3
SHELL BEACH      1800   81 78  360/  3/  3 1016.6

OFFSHORE STATIONS

STATION/POSITION TIME  TEMP    WIND        PRES    WAVE
                       AIR SEA DIR/SP/G            HT/PER
                 (UTC) (F)     (DEG/KT/KT) (MB)    (FT/S)
64 S DAUPHIN ISL 1708   82 85   30/ 16/ 17 1016.2    2/ 4

$$




USA.gov is the U.S. government's official web portal to all federal, state and local government web resources and services.